Flag for Philippines Weather past 2 weeks in Makati, Philippines

Now
86 °F

More clouds than sun.


Feels Like: 99 °F
Forecast: 82 / 87 °F
Wind: 16 mph from West

Location: National Airport

Current Time: Jul 4, 2015 at 6:19:06 PM

Latest Report: Jul 4, 2015 at 5:00 PM


Visibility: N/A

Pressure: 29.53 "Hg

Humidity: 79%

Dew point: 79 °F

Location of MakatiLocation

Historic Weather in Makati — Graph

°F

Makati temperature yesterday

Maximum temperature yesterday: 90 °F (at 1:00 PM)
Minimum temperature yesterday: 81 °F (at 4:00 AM)
Average temperature yesterday: 85 °F

Past Weeks' High & Low Weather Summary

 TemperatureHumidityPressure
High95 °F (Jun 22, 1:00 PM)100% (Jun 20, 4:00 AM)29.92 "Hg (Jun 20, 4:00 AM)
Low77 °F (Jun 23, 6:00 AM)47% (Jun 22, 1:00 PM)29.50 "Hg (Jul 4, 3:00 PM)
Average85 °F79%29.79 "Hg
* Reported Jun 19 5:00 PM — Jul 4 5:00 PM, Makati, Weather by CustomWeather, © 2015

Note: Actual official high and low records may vary slightly from our data, if they occured in-between our weather recording intervals... More about our weather records

Advertising

Makati weather history for previous 24 hours

 ConditionsComfort  
Time TempWeatherWind HumidityBarometerVisibility
5:00 PM
Sat, Jul 4
86 °FMore clouds than sun.16 mph79%29.53 "HgN/A
4:00 PM88 °FBroken clouds.20 mph75%29.50 "HgN/A
3:00 PM88 °FBroken clouds.18 mph70%29.50 "HgN/A
2:00 PM88 °FBroken clouds.21 mph75%29.53 "HgN/A
1:00 PM84 °FBroken clouds.16 mph89%29.56 "HgN/A
12:00 PM84 °FLight rain. More clouds than sun.14 mph94%29.56 "Hg6 mi
11:00 AM84 °FLight rain. More clouds than sun.6 mph89%29.59 "Hg6 mi
10:00 AM84 °FLight rain. More clouds than sun.5 mph89%29.59 "HgN/A
9:00 AM84 °FLight rain. More clouds than sun.7 mph84%29.59 "HgN/A
8:00 AM84 °FSprinkles. More clouds than sun.7 mph84%29.59 "HgN/A
7:00 AM82 °FMore clouds than sun.5 mph89%29.59 "HgN/A
6:00 AM82 °FLight rain. More clouds than sun.1 mph89%29.59 "HgN/A
5:00 AM82 °FMostly cloudy.1 mph89%29.89 "HgN/A
4:00 AM82 °FLight rain. Mostly cloudy.3 mph89%29.56 "HgN/A
3:00 AM84 °FSprinkles. Mostly cloudy.6 mph79%29.59 "HgN/A
2:00 AM84 °FMostly cloudy.9 mph79%29.59 "HgN/A
1:00 AM84 °FPartly cloudy.7 mph79%29.62 "HgN/A
12:00 AM84 °FPartly cloudy.9 mph79%29.62 "HgN/A
11:00 PM
Fri, Jul 3
84 °FPartly cloudy.12 mph84%29.65 "HgN/A
10:00 PM84 °FPartly cloudy.16 mph84%29.62 "HgN/A
9:00 PMN/APartly cloudy.7 mphN/A29.65 "HgN/A
8:00 PM84 °FPassing clouds.5 mph79%29.62 "HgN/A
7:00 PM86 °FPassing clouds.6 mph70%29.62 "HgN/A
6:00 PM88 °FPartly sunny.10 mph66%29.59 "HgN/A
Weather by CustomWeather, © 2015

See weather overviewHow to use our weather pages